[Iaude] MPEC V48: 2016 VN1 [a=1.06,e=0.39,i=26.3,H=25.7]

mpec at si.edu mpec at si.edu
Mon Nov 7 06:45:56 EST 2016


M.P.E.C. 2016-V48                                Issued 2016 Nov. 7, 11:41 UT
 
     The Minor Planet Electronic Circulars contain information on unusual
         minor planets and routine data on comets.  They are published
    on behalf of Division F of the International Astronomical Union by the
          Minor Planet Center, Smithsonian Astrophysical Observatory,
                          Cambridge, MA 02138, U.S.A.

             Prepared using the Tamkin Foundation Computer Network

                              MPC at CFA.HARVARD.EDU
            URL http://www.minorplanetcenter.net/    ISSN 1523-6714


                                   2016 VN1
 
Observations:
     K16V01N* C2016 11 05.20300 01 38 49.47 +11 50 15.2          19.6 VqEV048G96
     K16V01N  C2016 11 05.20732 01 38 45.75 +11 46 28.3          19.6 VqEV048G96
     K16V01N  C2016 11 05.21163 01 38 42.01 +11 42 41.9          19.6 VqEV048G96
     K16V01N  C2016 11 05.21596 01 38 38.28 +11 38 57.5          19.6 VqEV048G96
     K16V01N  C2016 11 05.24771 01 38 10.67 +11 11 05.9          18.8 VqEV048I52
     K16V01N  C2016 11 05.24906 01 38 09.50 +11 09 54.1          18.8 VqEV048I52
     K16V01N  C2016 11 05.24947 01 38 09.13 +11 09 32.3          18.2 VqEV048I52
     K16V01N  C2016 11 05.24989 01 38 08.77 +11 09 10.4          18.7 VqEV048I52
     K16V01N  C2016 11 05.44003 01 35 23.15 +08 15 27.3          19.6 VqEV048G96
     K16V01N  C2016 11 05.44044 01 35 22.76 +08 15 05.0          19.6 VqEV048G96
     K16V01N  C2016 11 05.44086 01 35 22.41 +08 14 41.7          19.6 VqEV048G96
     K16V01N  C2016 11 05.44131 01 35 22.06 +08 14 17.3          19.6 VqEV048G96
     K16V01N KC2016 11 05.84518901 30 01.91 +01 29 54.7                qEV048J95
     K16V01N KC2016 11 05.85203901 29 55.38 +01 22 40.7                qEV048J95
     K16V01N KC2016 11 05.85870301 29 48.98 +01 15 37.3          18.9 RqEV048J95
     K16V01N  C2016 11 06.14312 01 25 30.67 -03 54 53.7          18.8 RoEV048926
     K16V01N  C2016 11 06.14458 01 25 29.17 -03 56 33.4          18.8 RoEV048926
     K16V01N  C2016 11 06.14604 01 25 27.65 -03 58 12.6          19.0 RoEV048926
     K16V01N  C2016 11 06.19160 01 24 39.23 -04 50 07.5          19.0 VqEV048G96
     K16V01N  C2016 11 06.19678 01 24 33.66 -04 56 02.6          19.2 VqEV048G96
     K16V01N  C2016 11 06.19702 01 24 33.41 -04 56 18.9          18.8 VqEV048G96
     K16V01N  C2016 11 06.19741 01 24 32.98 -04 56 46.0          19.2 VqEV048G96
     K16V01N  C2016 11 06.28537 01 22 57.07 -06 38 06.0          18.9 RoEV048926
     K16V01N  C2016 11 06.28684 01 22 55.46 -06 39 48.0          18.9 RoEV048926
     K16V01N  C2016 11 06.28830 01 22 53.85 -06 41 29.7          19.0 RoEV048926
     K16V01N  C2016 11 07.18564 01 06 27.97 -24 49 25.8          19.1 VqEV048G96
     K16V01N  C2016 11 07.18743 01 06 25.51 -24 51 36.7          18.9 VqEV048G96
     K16V01N  C2016 11 07.18876 01 06 23.65 -24 53 14.9          18.8 VqEV048G96
 
Observer details:
926 Tenagra II Observatory.  Observers M. Schwartz, P. R. Holvorcem.  Measurer
    M. Schwartz.  0.81-m f/7 Ritchey-Chretien + CCD.
G96 Mt. Lemmon Survey.  Observers A. R. Gibbs, R. A. Kowalski.  Measurers
    E. J. Christensen, D. C. Fuls, A. R. Gibbs, A. D. Grauer, J. A. Johnson,
    R. A. Kowalski, S. M. Larson, G. J. Leonard, R. G. Matheny, R. L. Seaman,
    F. C. Shelly.  1.5-m reflector + 10K CCD.
I52 Steward Observatory, Mt. Lemmon Station.  Observer R. G. Matheny.
    Measurers E. J. Christensen, D. C. Fuls, A. R. Gibbs, A. D. Grauer,
    J. A. Johnson, R. A. Kowalski, S. M. Larson, G. J. Leonard, R. G. Matheny,
    R. L. Seaman, F. C. Shelly.  1.0-m reflector + CCD.
J95 Great Shefford.  Observer P. Birtwhistle.  0.40-m f/6.0 Schmidt-Cassegrain
    + CCD.
 
Orbital elements:
2016 VN1                                                 Earth MOID = 0.0214 AU
Epoch 2016 July 31.0 TT = JDT 2457600.5                 MPC
M 208.87484              (2000.0)            P               Q
n   0.90613729     Peri.  287.91395     -0.80361534     -0.51405510
a   1.0576453      Node   222.58145     +0.55302452     -0.83120394
e   0.3853981      Incl.   26.31111     -0.21992332     -0.21177197
P   1.09           H   25.7           G   0.15           U   7
Residuals in seconds of arc
161105 G96  0.2-  1.1+    161105 G96  0.2-  0.2+    161106 G96  0.3+  0.6+
161105 G96  0.2-  0.6-    161105 G96  0.3+  1.3+    161106 G96  0.2+  0.3+
161105 G96 (0.5-  2.0-)   161105 J95  0.0   0.2-    161106 926  0.1-  0.5-
161105 G96  0.3-  0.0     161105 J95  0.2+  0.1+    161106 926  0.0   0.1-
161105 I52  0.1-  0.1+    161105 J95  0.0   0.1-    161106 926  0.1-  0.1-
161105 I52  0.1+  0.2-    161106 926  0.6-  0.4+    161107 G96  0.2+  0.0
161105 I52  0.1-  0.2-    161106 926  0.2-  0.1-    161107 G96  0.1+  0.3+
161105 I52  0.0   0.1+    161106 926  0.1-  0.1-    161107 G96  0.4-  0.3-
161105 G96  0.4+  1.1-    161106 G96  0.3+  0.2+
161105 G96  0.2-  0.2-    161106 G96  0.2+  0.5+

Ephemeris:
2016 VN1                 a,e,i = 1.06, 0.39, 26                  q = 0.6500
Date    TT    R. A. (2000) Decl.     Delta      r     Elong.  Phase     V
2016 10 08    02 51 06.8 +58 15 09   0.3053  1.1932   123.0    44.6    25.2
...
2016 10 23    02 43 19.4 +55 55 02   0.1525  1.1068   134.3    40.0    23.4
...
2016 10 31    02 20 09.0 +46 18 17   0.07447 1.0565   147.8    30.1    21.5
...
2016 11 06    01 27 35.4 -01 11 50   0.02867 1.0171   154.3    25.0    19.2
2016 11 07    01 10 09.5 -20 56 41   0.02701 1.0104   135.5    43.4    19.6
2016 11 08    00 47 30.4 -40 23 01   0.02887 1.0037   116.0    62.5    20.2
...
2016 11 14    19 36 00.5 -78 11 05   0.07433 0.9628    67.1   108.8    24.1
...
2016 11 22    16 34 54.5 -73 34 32   0.1500  0.9072    53.8   118.5    26.1
...
2016 12 07    15 52 07.3 -66 34 31   0.2963  0.8039    45.1   119.8    27.4

A. U. Tomatic                (C) Copyright 2016 MPC           M.P.E.C. 2016-V48




More information about the Iaude mailing list